Overview Statistics Trail Chart Weather Telemetry Raw packets
 

This is the latest recevied weather packets stored in our database for station/object KC9DRE. If no packets are shown the sender has not sent any weather packets the latest 10 day(s).

<< 55 56 57 58 59 60 61 >>
Time Temp. Humidity Pressure Rain* Wind** Luminosity Snow
1777566652 15° C 45% 1018.2 hPa 0 mm - 841 W/m² -
1777566349 15° C 45% 1018.2 hPa 0 mm - 838 W/m² -
1777566046 14.44° C 43% 1017.9 hPa 0 mm - 833 W/m² -
1777565742 13.89° C 40% 1018 hPa 0 mm - 827 W/m² -
1777565438 13.89° C 44% 1017.9 hPa 0 mm - 821 W/m² -
1777565134 14.44° C 41% 1017.9 hPa 0 mm - 814 W/m² -
1777564831 13.89° C 44% 1017.9 hPa 0 mm - 807 W/m² -
1777564526 13.89° C 40% 1018.1 hPa 0 mm - 800 W/m² -
1777564221 13.89° C 44% 1018.1 hPa 0 mm - 791 W/m² -
1777563918 13.89° C 42% 1018 hPa 0 mm - 781 W/m² -
1777563614 13.89° C 50% 1018.1 hPa 0 mm - 769 W/m² -
1777563314 14.44° C 48% 1018.2 hPa 0 mm - 759 W/m² -
1777563011 13.89° C 51% 1018.2 hPa 0 mm - 747 W/m² -
1777562706 14.44° C 45% 1018.1 hPa 0 mm - 734 W/m² -
1777562406 13.89° C 52% 1018.2 hPa 0 mm - 721 W/m² -
1777562102 13.33° C 50% 1018 hPa 0 mm - 707 W/m² -
1777561800 13.89° C 50% 1018.3 hPa 0 mm - 696 W/m² -
1777561495 13.33° C 49% 1018 hPa 0 mm - 683 W/m² -
1777561191 12.78° C 52% 1018 hPa 0 mm - 669 W/m² -
1777560885 12.22° C 53% 1018.2 hPa 0 mm - 655 W/m² -
1777560584 12.78° C 53% 1018.3 hPa 0 mm - 639 W/m² -
1777560281 12.22° C 57% 1018.3 hPa 0 mm - 626 W/m² -
1777559978 12.78° C 53% 1018.4 hPa 0 mm - 610 W/m² -
1777559673 12.78° C 52% 1018.4 hPa 0 mm - 592 W/m² -
1777559371 12.22° C 54% 1018.5 hPa 0 mm - 582 W/m² -

* Rain latest hour (hover to see other rain measurements)
** Current wind speed in m/s (hover to see current wind gust speed)